• Em Portugal
  • Lista de países
  • Para 7 dias
  • Temperatura da água
  • Mapas de satélite
  • Mapa do tempo
  • Widgets de tempo
  • user-avatar
    Iniciar Sessão

    Previsão horária em Albena

    Hoje, 26 Setembro, Quarta-feira

    Tempo Temperatura Precipitação Vento Pressão Humidade
    00:00 +9°C° 0 mm 7 m/s 757 mmHg 53%
    01:00 +8°C° 0 mm 7 m/s 757 mmHg 54%
    02:00 +7°C° 0 mm 8 m/s 757 mmHg 56%
    03:00 +6°C° 0 mm 8 m/s 757 mmHg 57%
    04:00 +6°C° 0 mm 8 m/s 758 mmHg 58%
    05:00 +6°C° 0 mm 8 m/s 758 mmHg 60%
    06:00 +6°C° 0 mm 8 m/s 758 mmHg 58%
    07:00 +7°C° 0 mm 9 m/s 758 mmHg 56%
    08:00 +8°C° 0 mm 9 m/s 759 mmHg 54%
    09:00 +10°C° 0 mm 9 m/s 759 mmHg 50%
    10:00 +11°C° 0 mm 9 m/s 759 mmHg 45%
    11:00 +13°C° 0 mm 8 m/s 759 mmHg 41%
    12:00 +13°C° 0 mm 8 m/s 759 mmHg 39%
    13:00 +15°C° 0 mm 8 m/s 759 mmHg 37%
    14:00 +16°C° 0 mm 8 m/s 758 mmHg 35%
    15:00 +15°C° 0 mm 8 m/s 758 mmHg 36%
    16:00 +15°C° 0 mm 8 m/s 758 mmHg 37%
    17:00 +13°C° 0 mm 8 m/s 758 mmHg 38%
    18:00 +12°C° 0 mm 8 m/s 758 mmHg 40%
    19:00 +11°C° 0 mm 7 m/s 758 mmHg 42%
    20:00 +10°C° 0 mm 7 m/s 758 mmHg 45%
    21:00 +9°C° 0 mm 7 m/s 758 mmHg 46%
    22:00 +9°C° 0 mm 7 m/s 758 mmHg 47%
    23:00 +7°C° 0 mm 8 m/s 759 mmHg 48%

    Amanhã, 27 Setembro, Quinta-feira

    Tempo Temperatura Precipitação Vento Pressão Humidade
    00:00 +8°C° 0 mm 7 m/s 758 mmHg 48%
    01:00 +6°C° 0 mm 7 m/s 758 mmHg 49%
    02:00 +6°C° 0 mm 7 m/s 758 mmHg 50%
    03:00 +6°C° 0 mm 7 m/s 758 mmHg 50%
    04:00 +5°C° 0 mm 7 m/s 757 mmHg 51%
    05:00 +5°C° 0 mm 6 m/s 757 mmHg 51%
    06:00 +7°C° 0 mm 6 m/s 757 mmHg 48%
    07:00 +8°C° 0 mm 6 m/s 757 mmHg 46%
    08:00 +8°C° 0 mm 6 m/s 757 mmHg 43%
    09:00 +10°C° 0 mm 6 m/s 757 mmHg 39%
    10:00 +13°C° 0 mm 6 m/s 757 mmHg 36%
    11:00 +15°C° 0 mm 6 m/s 757 mmHg 33%
    12:00 +16°C° 0 mm 5 m/s 757 mmHg 32%
    13:00 +16°C° 0 mm 5 m/s 756 mmHg 32%
    14:00 +17°C° 0 mm 5 m/s 756 mmHg 31%
    15:00 +18°C° 0 mm 4 m/s 756 mmHg 31%
    16:00 +17°C° 0 mm 4 m/s 755 mmHg 31%
    17:00 +17°C° 0 mm 4 m/s 755 mmHg 31%
    18:00 +15°C° 0 mm 4 m/s 755 mmHg 34%
    19:00 +13°C° 0 mm 3 m/s 755 mmHg 38%
    20:00 +11°C° 0 mm 3 m/s 755 mmHg 42%
    21:00 +11°C° 0 mm 3 m/s 755 mmHg 44%
    22:00 +10°C° 0 mm 2 m/s 755 mmHg 45%
    23:00 +10°C° 0 mm 2 m/s 755 mmHg 47%

    Depois de amanhã, 28 Setembro, Sexta-feira

    Tempo Temperatura Precipitação Vento Pressão Humidade
    00:00 +10°C° 0 mm 2 m/s 754 mmHg 48%
    01:00 +9°C° 0 mm 2 m/s 754 mmHg 48%
    02:00 +9°C° 0 mm 2 m/s 754 mmHg 48%
    03:00 +9°C° 0 mm 3 m/s 753 mmHg 47%
    04:00 +9°C° 0 mm 3 m/s 753 mmHg 46%
    05:00 +8°C° 0 mm 3 m/s 753 mmHg 45%
    06:00 +10°C° 0 mm 3 m/s 753 mmHg 42%
    07:00 +11°C° 0 mm 3 m/s 753 mmHg 39%
    08:00 +12°C° 0 mm 3 m/s 752 mmHg 36%
    09:00 +14°C° 0 mm 3 m/s 752 mmHg 36%
    10:00 +17°C° 0 mm 3 m/s 752 mmHg 36%
    11:00 +19°C° 0 mm 3 m/s 752 mmHg 36%
    12:00 +19°C° 0 mm 3 m/s 751 mmHg 35%
    13:00 +20°C° 0 mm 3 m/s 750 mmHg 35%
    14:00 +21°C° 0 mm 4 m/s 750 mmHg 34%
    15:00 +20°C° 0 mm 4 m/s 749 mmHg 38%
    16:00 +19°C° 0 mm 4 m/s 749 mmHg 41%
    17:00 +19°C° 0 mm 4 m/s 748 mmHg 44%
    18:00 +17°C° 0 mm 3 m/s 748 mmHg 52%
    19:00 +16°C° 0 mm 3 m/s 748 mmHg 59%
    20:00 +14°C° 0 mm 2 m/s 748 mmHg 67%
    21:00 +14°C° 0 mm 2 m/s 748 mmHg 68%
    22:00 +14°C° 0 mm 2 m/s 748 mmHg 70%
    23:00 +14°C° 0 mm 1 m/s 748 mmHg 71%

    29 Setembro, Sábado

    Tempo Temperatura Precipitação Vento Pressão Humidade
    00:00 +14°C° 0 mm 1 m/s 747 mmHg 71%
    01:00 +14°C° 0 mm 1 m/s 747 mmHg 71%
    02:00 +14°C° 0 mm 1 m/s 747 mmHg 70%
    03:00 +14°C° 0 mm 1 m/s 747 mmHg 71%
    04:00 +14°C° 0 mm 1 m/s 746 mmHg 71%
    05:00 +14°C° 0 mm 1 m/s 746 mmHg 71%
    06:00 +15°C° 0 mm 2 m/s 746 mmHg 69%
    07:00 +16°C° 0 mm 2 m/s 746 mmHg 67%
    08:00 +17°C° 0 mm 2 m/s 746 mmHg 65%
    09:00 +17°C° 0 mm 2 m/s 746 mmHg 65%
    10:00 +18°C° 0 mm 2 m/s 746 mmHg 64%
    11:00 +19°C° 0 mm 3 m/s 746 mmHg 64%
    12:00 +19°C° 0 mm 3 m/s 746 mmHg 62%
    13:00 +20°C° 0 mm 3 m/s 746 mmHg 60%
    14:00 +20°C° 0 mm 4 m/s 746 mmHg 58%
    15:00 +20°C° 0.1 mm 4 m/s 746 mmHg 59%
    16:00 +19°C° 0.1 mm 4 m/s 746 mmHg 60%
    17:00 +19°C° 0.1 mm 4 m/s 746 mmHg 61%
    18:00 +17°C° 0.1 mm 5 m/s 746 mmHg 62%
    19:00 +16°C° 0.1 mm 6 m/s 747 mmHg 62%
    20:00 +15°C° 0.1 mm 6 m/s 747 mmHg 63%
    21:00 +14°C° 0.2 mm 7 m/s 747 mmHg 68%
    22:00 +13°C° 0.2 mm 8 m/s 748 mmHg 73%
    23:00 +12°C° 0.2 mm 8 m/s 748 mmHg 78%

    30 Setembro, Domingo

    Tempo Temperatura Precipitação Vento Pressão Humidade
    00:00 +12°C° 0.1 mm 8 m/s 748 mmHg 78%
    01:00 +11°C° 0.1 mm 9 m/s 748 mmHg 79%
    02:00 +11°C° 0.1 mm 9 m/s 748 mmHg 79%
    03:00 +11°C° 0 mm 9 m/s 748 mmHg 78%
    04:00 +10°C° 0 mm 9 m/s 748 mmHg 77%
    05:00 +10°C° 0 mm 9 m/s 748 mmHg 76%
    06:00 +10°C° 0 mm 9 m/s 749 mmHg 76%
    07:00 +10°C° 0 mm 9 m/s 749 mmHg 75%
    08:00 +9°C° 0 mm 10 m/s 749 mmHg 75%
    09:00 +12°C° 0.1 mm 10 m/s 749 mmHg 70%
    10:00 +13°C° 0.1 mm 10 m/s 749 mmHg 66%
    11:00 +14°C° 0.1 mm 10 m/s 750 mmHg 62%
    12:00 +16°C° 0.1 mm 10 m/s 749 mmHg 61%
    13:00 +17°C° 0.1 mm 10 m/s 749 mmHg 60%
    14:00 +17°C° 0.1 mm 10 m/s 749 mmHg 59%
    15:00 +17°C° 0.2 mm 9 m/s 749 mmHg 61%
    16:00 +17°C° 0.2 mm 9 m/s 749 mmHg 63%
    17:00 +17°C° 0.2 mm 9 m/s 749 mmHg 65%
    18:00 +16°C° 0.2 mm 9 m/s 749 mmHg 67%
    19:00 +16°C° 0.2 mm 9 m/s 749 mmHg 70%
    20:00 +16°C° 0.2 mm 9 m/s 749 mmHg 73%
    21:00 +15°C° 0.1 mm 8 m/s 749 mmHg 74%
    22:00 +15°C° 0.1 mm 8 m/s 748 mmHg 75%
    23:00 +13°C° 0.1 mm 8 m/s 748 mmHg 76%

    1 Outubro, Segunda-feira

    Tempo Temperatura Precipitação Vento Pressão Humidade
    00:00 +13°C° 0.1 mm 8 m/s 748 mmHg 75%
    01:00 +13°C° 0.1 mm 8 m/s 748 mmHg 73%
    02:00 +12°C° 0.1 mm 8 m/s 747 mmHg 72%
    03:00 +12°C° 0.1 mm 8 m/s 747 mmHg 71%
    04:00 +12°C° 0.1 mm 8 m/s 747 mmHg 71%
    05:00 +11°C° 0.1 mm 8 m/s 747 mmHg 71%
    06:00 +12°C° 0.1 mm 8 m/s 747 mmHg 71%
    07:00 +12°C° 0.1 mm 8 m/s 746 mmHg 71%
    08:00 +13°C° 0.1 mm 8 m/s 746 mmHg 71%
    09:00 +15°C° 0.2 mm 8 m/s 746 mmHg 70%
    10:00 +16°C° 0.2 mm 8 m/s 746 mmHg 69%
    11:00 +16°C° 0.2 mm 8 m/s 746 mmHg 69%
    12:00 +16°C° 0.4 mm 8 m/s 745 mmHg 70%
    13:00 +16°C° 0.4 mm 8 m/s 745 mmHg 72%
    14:00 +16°C° 0.4 mm 8 m/s 744 mmHg 74%
    15:00 +16°C° 1.9 mm 8 m/s 744 mmHg 76%
    16:00 +16°C° 1.9 mm 7 m/s 744 mmHg 78%
    17:00 +16°C° 1.9 mm 7 m/s 744 mmHg 81%
    18:00 +15°C° 3.1 mm 7 m/s 744 mmHg 83%
    19:00 +15°C° 3.1 mm 7 m/s 744 mmHg 86%
    20:00 +14°C° 3.1 mm 7 m/s 744 mmHg 88%
    21:00 +14°C° 1.4 mm 7 m/s 744 mmHg 88%
    22:00 +14°C° 1.4 mm 7 m/s 744 mmHg 89%
    23:00 +14°C° 1.4 mm 7 m/s 744 mmHg 89%
    Mostrar mais